| time (UTC) | temp F | wind direction | speed MPH | gust MPH | rain 1hr in | rain 24hr in | rain mn in | humidity % | barometer mb |
| 20260901070034 | 71 | 311 | 0.0 | 0.0 | 0.00 | 0.01 | 0.00 | 91 | 1013.3 |
| 20260901064602 | 71 | 349 | 0.0 | 0.0 | 0.00 | 0.01 | 0.00 | 92 | 1013.5 |
| 20260901063030 | 71 | 349 | 0.0 | 0.0 | 0.00 | 0.01 | 0.00 | 92 | 1013.5 |
| 20260901061554 | 71 | 349 | 0.0 | 0.0 | 0.00 | 0.01 | 0.00 | 92 | 1013.6 |
| 20260901060020 | 71 | 349 | 0.0 | 0.0 | 0.00 | 0.01 | 0.00 | 93 | 1013.6 |
| 20260901054547 | 71 | 35 | 0.0 | 0.0 | 0.00 | 0.01 | 0.00 | 93 | 1013.7 |
| 20260901053012 | 71 | 349 | 0.0 | 0.0 | 0.00 | 0.01 | 0.00 | 94 | 1013.9 |
| 20260901051600 | 71 | 260 | 0.0 | 0.0 | 0.00 | 0.01 | 0.00 | 94 | 1013.9 |
| 20260901050008 | 71 | 260 | 0.0 | 0.0 | 0.00 | 0.01 | 0.00 | 95 | 1013.9 |
| 20260901044537 | 71 | 260 | 0.0 | 0.0 | 0.00 | 0.01 | 0.00 | 96 | 1013.9 |
| 20260901043101 | 71 | 261 | 0.0 | 0.0 | 0.00 | 0.01 | 0.00 | 96 | 1013.9 |
| 20260901041526 | 71 | 260 | 0.0 | 0.0 | 0.00 | 0.01 | 0.00 | 96 | 1013.9 |
| 20260901040109 | 71 | 260 | 0.0 | 0.0 | 0.00 | 0.01 | 0.00 | 96 | 1013.9 |
| 20260901034523 | 71 | 261 | 0.0 | 0.0 | 0.00 | 0.01 | 0.01 | 96 | 1014.0 |
| 20260901033044 | 71 | 260 | 0.0 | 0.0 | 0.00 | 0.01 | 0.01 | 96 | 1013.9 |
| 20260901031510 | 71 | 260 | 0.0 | 0.0 | 0.00 | 0.01 | 0.01 | 95 | 1013.9 |
| 20260901030036 | 71 | 261 | 0.0 | 0.0 | 0.00 | 0.01 | 0.01 | 95 | 1013.8 |
| 20260901024505 | 72 | 260 | 0.0 | 0.0 | 0.00 | 0.01 | 0.01 | 95 | 1013.9 |
| 20260901023043 | 72 | 261 | 0.0 | 0.0 | 0.00 | 0.01 | 0.01 | 95 | 1014.1 |
| 20260901021601 | 72 | 260 | 0.0 | 0.0 | 0.00 | 0.01 | 0.01 | 95 | 1014.1 |
| 20260901020028 | 73 | 260 | 0.0 | 0.0 | 0.00 | 0.01 | 0.01 | 95 | 1014.1 |
| 20260901014600 | 73 | 260 | 0.0 | 0.0 | 0.00 | 0.01 | 0.01 | 95 | 1013.9 |
| 20260901013021 | 73 | 260 | 0.0 | 0.0 | 0.00 | 0.01 | 0.01 | 94 | 1013.9 |
| 20260901011548 | 74 | 260 | 0.0 | 0.0 | 0.00 | 0.01 | 0.01 | 94 | 1013.6 |
| 20260901010012 | 74 | 260 | 0.0 | 0.0 | 0.00 | 0.01 | 0.01 | 93 | 1013.5 |
| 20260901004538 | 74 | 260 | 0.0 | 0.0 | 0.00 | 0.01 | 0.01 | 93 | 1013.2 |
| 20260901003003 | 74 | 260 | 0.0 | 0.0 | 0.00 | 0.01 | 0.01 | 92 | 1013.3 |
| 20260901001532 | 75 | 261 | 0.0 | 0.0 | 0.00 | 0.01 | 0.01 | 91 | 1013.6 |
| 20260831234526 | 77 | 259 | 0.0 | 0.0 | 0.00 | 0.01 | 0.01 | 87 | 1013.1 |
| 20260831233058 | 78 | 259 | 0.0 | 0.0 | 0.00 | 0.01 | 0.01 | 85 | 1013.6 |
| 20260831231528 | 79 | 259 | 0.0 | 0.0 | 0.00 | 0.01 | 0.01 | 81 | 1014.1 |
| 20260831230109 | 79 | 258 | 0.0 | 0.0 | 0.00 | 0.01 | 0.01 | 81 | 1014.5 |
| 20260831224525 | 79 | 258 | 0.0 | 0.0 | 0.00 | 0.01 | 0.01 | 80 | 1014.9 |
| 20260831223051 | 80 | 258 | 0.0 | 0.0 | 0.00 | 0.01 | 0.01 | 78 | 1014.6 |
| 20260831221515 | 80 | 258 | 0.0 | 0.0 | 0.00 | 0.01 | 0.01 | 76 | 1014.4 |
| 20260831220058 | 82 | 259 | 0.0 | 0.0 | 0.00 | 0.01 | 0.01 | 74 | 1014.5 |
| 20260831214514 | 83 | 259 | 0.0 | 0.0 | 0.00 | 0.01 | 0.01 | 72 | 1014.5 |
| 20260831213044 | 84 | 242 | 0.0 | 0.0 | 0.00 | 0.01 | 0.01 | 68 | 1014.3 |
| 20260831211509 | 84 | 311 | 0.0 | 1.0 | 0.00 | 0.01 | 0.01 | 66 | 1014.5 |
| 20260831210037 | 86 | 302 | 0.0 | 0.0 | 0.00 | 0.01 | 0.01 | 64 | 1014.2 |
| 20260831204504 | 86 | 346 | 0.0 | 1.0 | 0.00 | 0.01 | 0.01 | 64 | 1014.2 |
| 20260831203030 | 86 | 53 | 0.0 | 1.0 | 0.00 | 0.01 | 0.01 | 61 | 1014.1 |
| 20260831201556 | 86 | 256 | 0.0 | 0.0 | 0.00 | 0.01 | 0.01 | 61 | 1014.1 |
| 20260831200036 | 85 | 73 | 0.0 | 0.0 | 0.00 | 0.01 | 0.01 | 62 | 1014.3 |
| 20260831194550 | 83 | 153 | 0.0 | 0.0 | 0.00 | 0.01 | 0.01 | 64 | 1014.7 |
| 20260831193015 | 81 | 57 | 0.0 | 2.0 | 0.00 | 0.01 | 0.01 | 67 | 1015.0 |
| 20260831191539 | 81 | 71 | 0.0 | 1.0 | 0.00 | 0.01 | 0.01 | 66 | 1015.1 |
| 20260831190003 | 83 | 161 | 0.0 | 0.0 | 0.00 | 0.01 | 0.01 | 67 | 1015.5 |
| 20260831184528 | 84 | 139 | 0.0 | 0.0 | 0.01 | 0.01 | 0.01 | 63 | 1015.4 |
| 20260831183054 | 83 | 196 | 0.0 | 0.0 | 0.01 | 0.01 | 0.01 | 65 | 1015.4 |
| 20260831181523 | 80 | 267 | 0.0 | 0.0 | 0.01 | 0.01 | 0.01 | 75 | 1015.8 |
| 20260831180047 | 78 | 188 | 0.0 | 0.0 | 0.01 | 0.01 | 0.01 | 75 | 1016.1 |
| 20260831174519 | 78 | 156 | 0.0 | 0.0 | 0.00 | 0.00 | 0.00 | 74 | 1016.3 |
| 20260831173036 | 78 | 258 | 0.0 | 0.0 | 0.00 | 0.00 | 0.00 | 75 | 1016.5 |
| 20260831171501 | 77 | 67 | 0.0 | 0.0 | 0.00 | 0.00 | 0.00 | 76 | 1016.7 |
| 20260831170030 | 77 | 255 | 0.0 | 0.0 | 0.00 | 0.00 | 0.00 | 78 | 1016.8 |
| 20260831164608 | 77 | 226 | 0.0 | 0.0 | 0.00 | 0.00 | 0.00 | 79 | 1016.6 |
| 20260831163025 | 76 | 120 | 0.0 | 0.0 | 0.00 | 0.00 | 0.00 | 79 | 1016.9 |
| 20260831161551 | 76 | 132 | 0.0 | 1.0 | 0.00 | 0.00 | 0.00 | 80 | 1017.0 |
| 20260831160015 | 75 | 244 | 0.0 | 0.0 | 0.00 | 0.00 | 0.00 | 82 | 1016.9 |
| 20260831154545 | 75 | 245 | 0.0 | 0.0 | 0.00 | 0.00 | 0.00 | 83 | 1016.9 |
| 20260831153007 | 74 | 253 | 0.0 | 0.0 | 0.00 | 0.00 | 0.00 | 86 | 1016.9 |
| 20260831151537 | 73 | 49 | 0.0 | 0.0 | 0.00 | 0.00 | 0.00 | 86 | 1016.7 |
| 20260831150007 | 73 | 231 | 0.0 | 0.0 | 0.00 | 0.00 | 0.00 | 86 | 1016.5 |
| 20260831144533 | 73 | 45 | 0.0 | 0.0 | 0.00 | 0.00 | 0.00 | 88 | 1016.7 |
| 20260831143103 | 72 | 46 | 0.0 | 0.0 | 0.00 | 0.00 | 0.00 | 91 | 1016.5 |
| 20260831141522 | 71 | 64 | 0.0 | 0.0 | 0.00 | 0.00 | 0.00 | 92 | 1016.6 |
| 20260831140050 | 71 | 64 | 0.0 | 0.0 | 0.00 | 0.00 | 0.00 | 92 | 1016.6 |
| 20260831134516 | 71 | 73 | 0.0 | 0.0 | 0.00 | 0.00 | 0.00 | 92 | 1016.8 |
| 20260831133043 | 70 | 73 | 0.0 | 0.0 | 0.00 | 0.00 | 0.00 | 92 | 1016.7 |
| 20260831131512 | 70 | 68 | 0.0 | 0.0 | 0.00 | 0.00 | 0.00 | 93 | 1016.7 |
| 20260831130031 | 70 | 238 | 0.0 | 0.0 | 0.00 | 0.00 | 0.00 | 93 | 1016.3 |
| 20260831124600 | 70 | 56 | 0.0 | 0.0 | 0.00 | 0.00 | 0.00 | 94 | 1016.0 |
| 20260831123024 | 69 | 54 | 0.0 | 0.0 | 0.00 | 0.00 | 0.00 | 95 | 1016.0 |
| 20260831121554 | 69 | 53 | 0.0 | 0.0 | 0.00 | 0.00 | 0.00 | 95 | 1015.8 |
| 20260831120032 | 68 | 253 | 0.0 | 0.0 | 0.00 | 0.00 | 0.00 | 96 | 1016.0 |
| 20260831114548 | 67 | 167 | 0.0 | 0.0 | 0.00 | 0.00 | 0.00 | 96 | 1015.8 |
| 20260831113015 | 67 | 148 | 0.0 | 0.0 | 0.00 | 0.00 | 0.00 | 96 | 1015.8 |
| 20260831111601 | 67 | 143 | 0.0 | 0.0 | 0.00 | 0.00 | 0.00 | 96 | 1016.0 |
| 20260831110010 | 67 | 143 | 0.0 | 0.0 | 0.00 | 0.00 | 0.00 | 96 | 1016.0 |
| 20260831104552 | 67 | 143 | 0.0 | 0.0 | 0.00 | 0.00 | 0.00 | 95 | 1015.9 |
| 20260831103102 | 67 | 143 | 0.0 | 0.0 | 0.00 | 0.00 | 0.00 | 95 | 1016.0 |
| 20260831101533 | 67 | 143 | 0.0 | 0.0 | 0.00 | 0.00 | 0.00 | 95 | 1015.8 |
| 20260831100103 | 68 | 143 | 0.0 | 0.0 | 0.00 | 0.00 | 0.00 | 95 | 1015.8 |
| 20260831094526 | 68 | 143 | 0.0 | 0.0 | 0.00 | 0.00 | 0.00 | 95 | 1015.8 |
| 20260831093054 | 68 | 143 | 0.0 | 0.0 | 0.00 | 0.00 | 0.00 | 95 | 1015.8 |
| 20260831091521 | 68 | 143 | 0.0 | 0.0 | 0.00 | 0.00 | 0.00 | 95 | 1015.8 |
| 20260831090049 | 68 | 143 | 0.0 | 0.0 | 0.00 | 0.00 | 0.00 | 95 | 1015.8 |
| 20260831084516 | 68 | 143 | 0.0 | 0.0 | 0.00 | 0.00 | 0.00 | 95 | 1015.8 |
| 20260831083048 | 68 | 143 | 0.0 | 0.0 | 0.00 | 0.00 | 0.00 | 95 | 1015.7 |
| 20260831081513 | 68 | 143 | 0.0 | 0.0 | 0.00 | 0.00 | 0.00 | 95 | 1015.6 |
| 20260831080037 | 68 | 143 | 0.0 | 0.0 | 0.00 | 0.00 | 0.00 | 95 | 1015.5 |
| 20260831074503 | 69 | 143 | 0.0 | 0.0 | 0.00 | 0.00 | 0.00 | 95 | 1015.4 |
| 20260831073030 | 69 | 143 | 0.0 | 0.0 | 0.00 | 0.00 | 0.00 | 95 | 1015.5 |
| 20260831071557 | 69 | 143 | 0.0 | 0.0 | 0.00 | 0.00 | 0.00 | 95 | 1015.7 |